CAPE
272 178 205 254 281 153 28 19 45 0 0 0 0 1 0 0 0 0 0 0 0 0 0 0 0 0 0 0 0 0 0 0 0 0 0 0 0 0 0 0 0 0 0
318 305 280 98 96 34 21 35 0 0 0 1 0 1 0 0 0 0 0 0 0 0 0 0 0 0 0 0 0 0 0 0 0 0 0 0 0 0 0 0 0 0 0
381 63 21 0 6 43 0 0 0 0 0 0 0 1 0 0 0 0 0 0 0 0 0 0 0 0 0 0 0 0 0 0 0 0 0 0 0 0 0 0 0 0 0
0 0 1 2 0 0 1 2 0 0 1 0 0 0 0 0 0 0 0 0 0 0 0 0 0 0 0 0 0 0 0 0 0 0 0 0 0 0 0 0 0 0 0
0 0 1 2 3 2 0 0 0 0 0 0 0 0 0 0 0 0 0 0 0 0 0 0 0 0 0 0 0 0 0 0 0 0 0 0 0 0 0 0 0 0 0
0 1 1 0 0 0 0 3 0 0 0 0 0 0 0 0 0 0 0 0 0 0 0 0 0 0 0 0 0 0 0 0 0 0 0 0 0 0 0 0 0 0 0
2 2 2 1 1 1 1 0 0 0 0 0 0 0 0 0 0 0 0 0 0 0 0 0 0 0 0 0 0 0 0 0 0 0 0 0 0 0 0 0 0 0 0
0 1 2 1 0 0 0 0 0 0 0 0 0 0 0 0 0 0 0 0 0 0 0 0 0 0 0 0 0 0 0 0 0 0 0 0 0 0 0 0 0 0 0
0 0 0 0 0 0 0 0 0 0 0 0 0 0 0 0 0 0 0 0 0 0 0 0 0 0 0 0 0 0 0 0 0 0 0 2 1 0 0 4 0 0 0
0 0 0 0 0 0 0 0 0 0 0 0 0 0 0 0 0 0 0 0 0 0 0 0 0 0 0 0 0 0 0 0 0 0 0 0 0 0 0 3 10 0 0
0 0 0 0 0 0 0 0 0 0 0 0 0 0 0 0 0 0 0 0 0 0 0 0 0 0 0 0 0 0 0 0 0 0 0 0 0 1 4 1 0 0 0
0 0 0 0 0 0 0 0 0 0 0 0 0 0 0 0 0 0 0 0 0 0 0 0 0 0 0 0 0 8 8 0 1 6 7 2 0 0 0 8 5 0 0
0 0 0 0 0 0 0 0 0 0 0 0 0 0 0 0 0 0 0 0 0 0 0 0 0 0 0 0 0 0 0 0 0 2 2 8 4 0 0 2 4 0 0
0 0 0 0 0 0 0 0 0 0 0 0 0 0 0 0 0 0 0 0 0 0 0 0 0 0 0 0 0 0 0 0 2 4 6 0 4 0 0 1 12 0 0
0 0 0 0 0 0 0 0 0 0 0 0 0 0 0 0 0 0 0 0 0 0 0 0 0 0 0 0 0 0 0 0 2 3 1 1 5 2 0 4 0 0 0
0 0 0 0 0 0 0 0 0 0 0 0 0 0 0 0 0 0 0 0 0 0 0 0 0 0 0 0 0 0 0 1 4 5 2 6 0 8 5 0 0 0 0
0 0 0 0 0 0 0 0 0 0 0 0 0 0 0 0 0 0 0 0 0 0 0 0 0 0 0 0 0 0 0 0 4 1 1 4 5 1 5 0 0 0 0
0 0 0 0 0 0 0 0 0 0 0 0 0 0 0 0 0 0 0 1 0 0 0 0 0 0 0 0 0 0 0 0 0 0 0 2 1 3 1 0 0 0 0
0 0 0 0 0 0 0 0 0 0 0 0 0 0 0 0 0 0 0 0 0 0 0 0 0 0 0 0 0 0 0 0 0 0 0 0 2 2 0 1 1 0 0
0 0 0 1 0 0 0 0 0 0 0 0 0 0 0 0 0 0 0 0 0 0 0 0 0 0 0 0 0 0 0 0 0 0 0 0 1 1 1 0 0 5 0
0 0 0 1 0 0 0 0 0 0 0 0 0 0 0 0 0 0 0 0 0 0 0 0 0 0 0 0 0 0 0 0 0 0 0 0 0 0 1 2 1 0 1
1 2 0 0 0 0 0 0 0 0 0 0 0 0 0 0 0 0 0 0 0 0 0 0 0 0 0 0 0 0 0 0 0 0 0 0 0 2 0 0 0 0 2
0 0 0 0 0 0 0 0 0 0 0 0 0 0 0 0 0 0 0 0 0 0 0 0 0 0 0 0 0 0 0 0 0 0 0 0 0 0 0 0 0 0 0
0 0 0 0 0 0 0 0 0 0 0 0 0 0 0 0 0 0 0 0 0 0 0 0 0 0 0 0 0 0 0 0 0 0 0 0 0 0 0 0 1 0 0
0 0 0 0 0 0 0 0 0 0 0 0 0 0 0 0 0 0 0 0 0 0 0 0 0 0 0 0 0 0 0 0 0 0 0 0 0 0 0 0 0 0 0
0 0 0 0 0 0 0 0 0 0 0 0 0 0 0 0 0 0 0 0 0 0 0 0 0 0 0 0 0 3 0 0 0 0 0 0 0 0 0 0 0 0 0
CIN
-191 -235 -187 -201 -193 -205 -247 -206 -153 -0 -0 -0 -0 -0 -0 -0 -0 -0 -0 -0 -0 -0 -0 -0 -0 -0 -0 -0 -0 -0 -0 -0 -0 -0 -0 -0 -0 -0 -0 -0 -0 -0 -0
-195 -214 -208 -346 -311 -250 -159 -90 -0 -0 -0 -0 -0 -0 -0 -0 -0 -0 -0 -0 -0 -0 -0 -0 -0 -0 -0 -0 -0 -0 -0 -0 -0 -0 -0 -0 -0 -0 -0 -0 -0 -0 -0
-172 -263 -190 -0 -22 -203 -0 -0 -0 -0 -0 -0 -0 -0 -0 -0 -0 -0 -0 -0 -0 -0 -0 -0 -0 -0 -0 -0 -0 -0 -0 -0 -0 -0 -0 -0 -0 -0 -0 -0 -0 -0 -0
-0 -0 -0 -0 -0 -0 -0 -0 -0 -0 -0 -0 -0 -0 -0 -0 -0 -0 -0 -0 -0 -0 -0 -0 -0 -0 -0 -0 -0 -0 -0 -0 -0 -0 -0 -0 -0 -0 -0 -0 -0 -0 -0
-0 -0 -0 -0 -0 -0 -0 -0 -0 -0 -0 -0 -0 -0 -0 -0 -0 -0 -0 -0 -0 -0 -0 -0 -0 -0 -0 -0 -0 -0 -0 -0 -0 -0 -0 -0 -0 -0 -0 -0 -0 -0 -0
-0 -0 -0 -0 -0 -0 -0 -0 -0 -0 -0 -0 -0 -0 -0 -0 -0 -0 -0 -0 -0 -0 -0 -0 -0 -0 -0 -0 -0 -0 -0 -0 -0 -0 -0 -0 -0 -0 -0 -0 -0 -0 -0
-0 -0 -0 -0 -0 -0 -0 -0 -0 -0 -0 -0 -0 -0 -0 -0 -0 -0 -0 -0 -0 -0 -0 -0 -0 -0 -0 -0 -0 -0 -0 -0 -0 -0 -0 -0 -0 -0 -0 -0 -0 -0 -0
-0 -0 -0 -0 -0 -0 -0 -0 -0 -0 -0 -0 -0 -0 -0 -0 -0 -0 -0 -0 -0 -0 -0 -0 -0 -0 -0 -0 -0 -0 -0 -0 -0 -0 -0 -0 -0 -0 -0 -0 -0 -0 -0
-0 -0 -0 -0 -0 -0 -0 -0 -0 -0 -0 -0 -0 -0 -0 -0 -0 -0 -0 -0 -0 -0 -0 -0 -0 -0 -0 -0 -0 -0 -0 -0 -0 -0 -0 -1 -0 -0 -0 -1 -0 -0 -0
-0 -0 -0 -0 -0 -0 -0 -0 -0 -0 -0 -0 -0 -0 -0 -0 -0 -0 -0 -0 -0 -0 -0 -0 -0 -0 -0 -0 -0 -0 -0 -0 -0 -0 -0 -0 -0 -0 -0 -7 -2 -0 -0
-0 -0 -0 -0 -0 -0 -0 -0 -0 -0 -0 -0 -0 -0 -0 -0 -0 -0 -0 -0 -0 -0 -0 -0 -0 -0 -0 -0 -0 -0 -0 -0 -0 -0 -0 -1 -0 -5 -2 -7 -0 -0 -0
-0 -0 -0 -0 -0 -0 -0 -0 -0 -0 -0 -0 -0 -0 -0 -0 -0 -0 -0 -0 -0 -0 -0 -0 -0 -0 -0 -0 -0 -0 -0 -0 -2 -0 -0 -1 -0 -0 -0 -1 -12 -0 -0
-0 -0 -0 -0 -0 -0 -0 -0 -0 -0 -0 -0 -0 -0 -0 -0 -0 -0 -0 -0 -0 -0 -0 -0 -0 -0 -0 -0 -0 -0 -0 -0 -0 -0 -1 -0 -1 -0 -0 -24 -0 -0 -0
-0 -0 -0 -0 -0 -0 -0 -0 -0 -0 -0 -0 -0 -0 -0 -0 -0 -0 -0 -0 -0 -0 -0 -0 -0 -0 -0 -0 -0 -0 -0 -0 -1 -0 -0 -1 -0 -0 -0 -4 -3 -0 -0
-0 -0 -0 -0 -0 -0 -0 -0 -0 -0 -0 -0 -0 -0 -0 -0 -0 -0 -0 -0 -0 -0 -0 -0 -0 -0 -0 -0 -0 -0 -0 -0 -0 -0 -0 -0 -0 -0 -0 -1 -0 -0 -0
-0 -0 -0 -0 -0 -0 -0 -0 -0 -0 -0 -0 -0 -0 -0 -0 -0 -0 -0 -0 -0 -0 -0 -0 -0 -0 -0 -0 -0 -0 -0 -0 -0 -0 -0 -0 -0 -0 -0 -0 -0 -0 -0
-0 -0 -0 -0 -0 -0 -0 -0 -0 -0 -0 -0 -0 -0 -0 -0 -0 -0 -0 -0 -0 -0 -0 -0 -0 -0 -0 -0 -0 -1 -0 -1 -0 -1 -0 -0 -0 -0 -0 -0 -0 -0 -0
-0 -0 -0 -0 -0 -0 -0 -0 -0 -0 -0 -0 -0 -0 -0 -0 -0 -0 -0 -0 -0 -0 -0 -0 -0 -0 -0 -0 -0 -0 -0 -0 -1 -0 -0 -0 -0 -0 -0 -0 -0 -0 -0
-0 -0 -0 -0 -0 -0 -0 -0 -0 -0 -0 -0 -0 -0 -0 -0 -0 -0 -0 -0 -0 -0 -0 -0 -0 -0 -0 -0 -0 -0 -0 -0 -0 -0 -0 -0 -0 -0 -0 -0 -0 -0 -0
-0 -0 -0 -0 -0 -0 -0 -0 -0 -0 -0 -0 -0 -0 -0 -0 -0 -0 -0 -0 -0 -0 -0 -0 -0 -0 -0 -0 -0 -0 -0 -0 -0 -0 -0 -0 -0 -0 -0 -0 -0 -0 -0
-0 -0 -0 -0 -0 -0 -0 -0 -0 -0 -0 -0 -0 -0 -0 -0 -0 -0 -0 -0 -0 -0 -0 -0 -0 -0 -0 -0 -0 -0 -0 -0 -0 -0 -1 -1 -1 -1 -0 -0 -0 -0 -0
-0 -0 -0 -0 -0 -0 -0 -0 -0 -0 -0 -0 -0 -0 -0 -0 -0 -0 -0 -0 -0 -0 -0 -0 -0 -0 -0 -0 -0 -0 -0 -0 -0 -0 -0 -0 -0 -0 -0 -0 -0 -0 -0
-0 -0 -0 -0 -0 -0 -0 -0 -0 -0 -0 -0 -0 -0 -0 -0 -0 -0 -0 -0 -0 -0 -0 -0 -0 -0 -0 -0 -0 -0 -0 -0 -0 -0 -0 -0 -0 -0 -0 -0 -0 -0 -0
-0 -0 -0 -0 -0 -0 -0 -0 -0 -0 -0 -0 -0 -0 -0 -0 -0 -0 -0 -0 -0 -0 -0 -0 -0 -0 -0 -0 -0 -0 -0 -0 -0 -0 -0 -0 -0 -0 -0 -0 -0 -0 -0
-0 -0 -0 -0 -0 -0 -0 -0 -0 -0 -0 -0 -0 -0 -0 -0 -0 -0 -0 -0 -0 -0 -0 -0 -0 -0 -0 -0 -0 -0 -0 -0 -0 -0 -0 -0 -0 -0 -0 -0 -0 -0 -0
-0 -0 -0 -0 -0 -0 -0 -0 -0 -0 -0 -0 -0 -0 -0 -0 -0 -0 -0 -0 -0 -0 -0 -0 -0 -0 -0 -0 -0 -0 -0 -0 -0 -0 -0 -0 -0 -0 -0 -0 -0 -0 -0
Wind_Speed
19 14 15 8 7 6 8 9 6 7 9 10 10 10 10 9 9 9 8 10 9 8 6 6 6 5 5 5 4 5 7 4 5 3 4 5 4 6 6 6 7 8 9
18 14 11 9 10 9 2 13 12 10 8 9 9 8 9 9 10 10 10 7 7 7 6 4 5 5 7 7 6 8 5 5 4 8 5 4 7 7 7 7 7 8 8
8 7 7 9 10 10 7 5 8 9 8 8 9 10 10 9 9 8 10 8 7 6 5 5 6 6 6 7 7 6 5 5 5 5 9 5 5 4 6 6 5 4 5
8 8 10 11 12 9 9 7 9 8 10 9 8 9 9 9 9 9 8 6 5 4 4 5 6 6 8 7 6 7 6 6 7 6 9 7 5 6 3 4 4 4 4
11 11 11 11 11 11 11 9 9 9 8 10 10 9 8 7 6 8 7 7 4 3 3 4 5 7 11 11 8 7 6 5 4 7 10 5 3 3 5 3 3 3 4
10 11 9 11 11 11 11 10 10 10 9 9 9 9 8 5 11 10 7 4 3 2 4 5 6 8 8 8 9 11 7 7 8 7 10 11 13 5 3 5 5 5 6
12 11 10 10 10 10 11 10 10 9 8 8 8 8 7 7 9 8 7 3 2 3 4 4 5 6 7 7 10 10 7 9 5 6 9 10 12 7 5 7 8 9 8
12 12 11 12 12 11 10 10 9 8 8 7 8 7 6 5 10 8 8 3 1 3 4 5 5 6 6 9 9 9 9 9 9 8 7 10 9 11 9 12 12 11 6
12 12 12 12 12 11 11 10 8 9 8 6 6 6 7 6 14 10 8 5 5 5 5 5 6 6 10 16 10 11 12 12 12 19 20 21 20 21 18 11 8 6 6
12 13 12 10 11 11 10 10 8 7 7 5 5 8 12 9 12 12 9 4 5 3 4 4 7 7 13 15 11 11 13 13 12 13 12 13 14 15 21 13 10 9 7
12 11 10 11 11 9 9 5 5 5 7 7 8 8 9 9 10 15 13 5 2 1 2 3 3 13 17 19 17 9 11 15 16 13 12 11 11 10 10 7 9 9 8
10 11 11 10 8 7 7 5 7 8 8 6 7 7 6 7 12 14 13 10 7 2 4 3 5 17 18 17 13 16 17 13 8 11 11 11 10 9 8 10 11 12 9
11 9 7 7 9 8 8 8 7 7 6 4 4 7 6 5 5 12 12 10 8 3 2 9 15 16 16 8 13 17 11 6 9 10 10 12 11 10 9 8 9 11 10
9 7 6 8 8 8 7 7 7 5 4 4 5 5 4 4 3 3 4 2 6 5 5 6 7 9 5 5 6 8 6 7 8 10 11 12 14 8 8 7 9 8 6
8 7 6 7 9 9 7 5 6 4 5 6 3 4 4 3 3 4 6 4 2 4 4 3 4 2 6 6 6 7 8 8 9 10 12 12 15 9 8 8 7 4 4
9 7 6 5 5 6 7 7 11 10 13 13 11 6 4 7 4 5 9 10 11 11 1 2 2 3 3 6 6 8 7 9 9 11 12 12 12 14 8 2 2 3 5
10 7 6 7 6 5 4 5 5 4 8 8 8 8 8 6 3 5 9 9 10 7 2 1 1 2 2 5 6 7 9 8 11 9 11 11 12 13 11 4 3 5 4
11 14 8 7 7 6 5 4 3 3 2 2 6 6 7 6 2 7 9 6 2 3 1 1 1 2 2 4 6 7 8 8 9 9 10 11 10 11 14 5 5 5 4
10 8 7 5 5 6 5 3 2 2 2 1 1 2 6 4 6 9 8 2 1 2 2 3 2 2 2 4 3 3 4 7 9 8 10 10 11 10 12 13 6 6 5
9 11 7 4 4 3 3 3 3 3 3 3 2 2 2 2 2 3 2 1 2 1 2 2 3 2 4 4 3 3 5 7 8 8 9 8 10 9 10 12 11 9 5
5 4 4 4 4 3 3 3 3 3 3 2 2 1 2 1 2 1 2 2 0 2 2 2 2 3 3 3 6 5 6 7 6 7 7 9 10 10 9 10 11 11 7
4 4 4 3 3 4 3 2 2 2 3 3 2 1 3 1 1 1 2 2 3 3 2 1 2 3 2 4 6 6 7 8 5 7 8 9 9 9 9 10 10 9 12
4 4 4 3 2 2 3 3 3 2 2 2 2 2 2 2 2 2 3 3 2 2 3 3 3 3 3 4 4 7 7 8 8 8 9 9 8 8 9 10 10 10 8
3 3 3 3 2 2 2 1 3 4 3 2 2 2 2 2 2 3 3 3 3 3 3 2 3 6 6 6 6 7 8 8 9 9 7 8 11 11 9 9 9 11 10
3 3 3 3 3 3 3 2 2 2 2 2 2 2 2 2 2 3 4 3 4 3 3 4 4 6 8 11 12 14 13 16 11 12 9 10 11 12 11 9 9 10 11
5 5 4 4 3 2 2 2 2 2 2 2 2 2 2 2 3 3 4 4 5 5 6 6 7 10 12 12 13 15 16 17 16 16 11 10 10 9 8 9 11 9 11
Wind_Direction
204 203 203 174 169 137 116 111 145 168 163 147 152 147 143 137 135 132 141 146 147 147 152 177 204 191 225 243 240 250 250 225 246 280 235 245 260 252 258 221 219 213 216
201 204 196 126 119 87 245 156 172 163 151 142 135 134 134 140 144 146 146 140 140 159 174 186 227 234 239 242 248 255 240 238 216 258 234 242 228 234 230 236 238 226 221
6 358 108 112 122 165 118 94 107 114 124 124 131 138 143 140 129 125 135 154 160 177 165 191 232 234 248 248 246 239 243 254 237 244 265 231 240 238 252 243 218 235 232
136 119 98 97 100 102 113 110 106 115 118 119 121 120 121 129 133 137 142 142 142 171 205 224 239 243 258 255 258 252 251 246 247 247 262 265 222 242 209 212 225 197 223
99 106 105 101 106 109 105 106 113 108 107 109 114 116 122 127 140 141 141 140 159 206 246 264 266 260 257 259 266 261 254 256 257 272 270 261 258 254 212 224 219 303 265
100 95 97 104 115 114 116 114 105 107 114 119 122 126 123 122 135 129 127 150 170 204 269 284 281 283 283 301 348 356 321 313 297 287 281 274 270 218 225 232 236 223 246
124 124 119 115 108 108 107 105 110 116 116 113 114 121 121 127 148 153 153 156 188 250 276 297 316 8 27 3 346 342 331 320 253 270 284 282 281 257 235 249 236 240 247
120 123 124 121 113 112 116 115 115 110 118 126 128 133 145 162 172 158 153 162 53 38 43 37 26 3 358 360 349 337 327 318 314 300 279 291 284 295 263 251 245 235 239
130 126 126 127 131 133 125 127 126 128 137 144 155 151 110 75 98 101 102 87 71 41 27 6 0 347 347 351 338 321 315 305 295 293 291 291 290 290 278 270 240 214 224
139 135 136 139 128 130 133 141 149 147 151 154 123 109 115 101 88 95 90 92 73 24 352 337 345 342 334 335 326 316 307 302 304 302 293 287 281 284 280 256 236 227 225
128 132 120 120 126 136 140 144 151 132 109 98 100 121 112 111 95 95 91 84 94 6 340 335 326 334 330 325 322 307 293 301 301 298 292 287 286 281 282 240 231 217 211
128 125 128 136 146 148 139 130 120 121 113 112 110 102 101 98 99 86 77 67 51 32 355 327 314 326 325 325 326 324 338 329 314 318 304 288 281 281 281 278 231 224 223
123 130 134 137 131 134 121 109 105 106 111 117 114 115 122 106 76 67 54 41 31 29 331 328 328 323 320 319 336 339 331 331 327 313 310 313 280 265 264 269 245 224 213
113 111 97 98 96 80 83 88 97 95 96 98 97 104 105 107 87 55 40 12 4 348 324 319 304 300 299 327 336 336 334 337 324 321 311 308 300 265 263 255 260 201 190
100 94 87 85 90 83 66 84 95 69 102 107 95 106 104 81 60 38 5 345 311 305 296 308 317 327 350 344 339 341 341 336 332 328 323 310 317 270 266 253 215 171 173
87 75 71 77 86 94 97 83 71 101 101 108 113 121 109 124 77 11 341 333 330 327 329 313 323 342 341 339 341 340 337 335 335 327 322 321 323 311 273 329 149 142 195
93 85 78 79 82 101 106 122 124 98 104 122 129 135 148 135 83 343 335 326 332 17 34 339 348 349 304 343 337 334 331 334 329 331 324 321 321 334 306 177 186 201 193
73 62 59 53 56 57 63 66 102 147 171 180 199 189 169 134 40 1 341 326 342 352 341 339 321 300 293 332 333 332 329 329 330 328 326 327 326 333 337 292 201 208 203
68 69 66 57 55 58 51 44 46 62 57 101 135 141 119 110 26 3 12 19 330 334 6 356 314 302 318 315 300 300 307 325 321 326 326 328 330 337 334 334 283 206 187
58 63 66 69 67 60 44 28 32 39 35 38 46 99 104 71 16 342 341 342 14 8 334 302 299 344 323 304 296 291 326 323 318 323 318 327 326 331 329 327 323 308 200
82 69 54 69 64 57 44 29 19 31 20 13 48 112 142 129 272 290 316 338 350 309 289 293 313 297 285 302 315 335 313 302 301 310 319 327 321 318 324 316 313 320 263
57 61 61 61 44 59 25 340 339 23 16 40 14 71 3 67 332 4 332 307 281 272 255 285 284 273 275 324 313 301 296 294 301 312 315 309 307 309 321 318 313 314 318
53 46 47 76 63 48 8 3 22 13 24 359 4 10 4 7 358 340 303 292 303 324 306 291 287 308 296 273 262 281 303 311 302 299 297 298 306 317 313 308 310 320 320
47 27 19 12 35 10 356 1 336 358 12 23 14 4 18 359 329 323 320 313 321 296 301 331 313 293 296 303 305 298 293 292 287 284 289 308 299 302 297 298 300 302 302
37 28 36 19 7 4 2 6 12 10 8 17 6 14 339 337 352 346 325 307 303 334 331 306 292 296 304 298 295 292 286 287 284 291 286 281 278 281 281 281 293 298 300
33 29 17 6 5 359 4 14 1 347 342 340 327 322 348 351 337 319 304 319 358 326 313 306 300 298 298 297 295 297 297 294 288 280 273 271 271 271 270 278 287 292 292